Content
SEND FEEDBACK

Daily
Averages
Monthly
Summary
United States of America

SAHUARITA, ARIZONA


Home > North America > United States > Arizona
Elevation: 822 meters     Latitude: 31 59N     Longitude: 110 59W

WEATHER
 
SELECT A DAY
Number of Records: 108,982;   Date Range: 1/1/02 - 9/30/14
 
SHARE

PRINT THIS DATA

[ ← Previous Day ]
WEATHER ALMANAC - 3 JANUARY, 2013
[ Next Day → ]
[ °F ]   °C
Weather ElementAverageHighLow
Temperature8.1 °C15.6 °C (2:53 pm)-1.1 °C (4:53 am)
Dewpoint-3.1 °C-0.6 °C (9:53 pm)-6.1 °C (9:53 am)
Humidity49.2 %85 % (4:53 am)27 % (12:53 pm)
Barometer1017.6 hPa1020.7 hPa (10:53 pm)1014.9 hPa (1:53 am)
Wind Speed14.8 km/h37 km/h (11:53 am)
Wind Gust46.3 km/h (11:53 am)
Weather ElementAverage
Visibility16.1 km
Wind DirectionE (92.2 °)

Weather ElementTotal
Precipitation---
Heating Degree Days11.1 (Base 18.3)
Averaged from 23 records on 3 January, 2013
WEATHER CONDITIONS BREAKOUT
WIND DIRECTION BREAKOUT
WEATHER BY HOUR - 3 JANUARY, 2013
[ °F ]   °C
Local TimeTemperatureDewpointHumidityBarometerVisibilityWind DirectionWind SpeedGust SpeedPrecipitationEventsConditions
1:53 AM6.1 °C-3.9 °C49 %1014.9 hPa16.1 kmCalmClear
2:53 AM2.2 °C-2.2 °C73 %1015.9 hPa16.1 kmSouth (170°)5.6 km/hClear
3:53 AM0.6 °C-2.8 °C78 %1015.6 hPa16.1 kmWSW (240°)5.6 km/hClear
4:53 AM-1.1 °C-3.3 °C85 %1015.6 hPa16.1 kmCalmClear
5:53 AM0 °C-3.3 °C79 %1015.9 hPa16.1 kmCalmClear
6:53 AM1.7 °C-2.8 °C72 %1016.6 hPa16.1 kmNNE (30°)7.4 km/hClear
7:53 AM1.7 °C-2.8 °C72 %1017.3 hPa16.1 kmCalmClear
8:53 AM7.8 °C-5.6 °C39 %1017.3 hPa16.1 kmEast (100°)7.4 km/hClear
9:53 AM10 °C-6.1 °C32 %1017.9 hPa16.1 kmESE (110°)20.4 km/hClear
10:53 AM12.2 °C-5 °C30 %1017.6 hPa16.1 kmEast (90°)13 km/hClear
11:53 AM13.3 °C-5 °C28 %1016.9 hPa16.1 kmESE (120°)37 km/h46.3 km/hClear
12:53 PM14.4 °C-4.4 °C27 %1016.3 hPa16.1 kmESE (120°)20.4 km/hClear
1:53 PM15 °C-3.9 °C27 %1015.6 hPa16.1 kmEast (100°)20.4 km/hClear
2:53 PM15.6 °C-3.3 °C27 %1015.9 hPa16.1 kmEast (100°)14.8 km/hClear
3:53 PM14.4 °C-3.3 °C30 %1016.6 hPa16.1 kmEast (100°)13 km/hScattered Clouds
4:53 PM13.9 °C-2.2 °C33 %1017.3 hPa16.1 kmEast (80°)14.8 km/hClear
5:53 PM11.1 °C-2.2 °C40 %1018.3 hPa16.1 kmESE (120°)14.8 km/hClear
6:53 PM9.4 °C-2.2 °C44 %1019 hPa16.1 kmESE (110°)18.5 km/hClear
7:53 PM8.3 °C-2.2 °C48 %1019.6 hPa16.1 kmESE (110°)24.1 km/h42.6 km/hOvercast
8:53 PM8.3 °C-1.1 °C52 %1020 hPa16.1 kmEast (100°)24.1 km/h38.9 km/hOvercast
9:53 PM7.2 °C-0.6 °C58 %1020 hPa16.1 kmESE (120°)31.5 km/h46.3 km/hPartly Cloudy
10:53 PM6.7 °C-1.7 °C55 %1020.7 hPa16.1 kmEast (100°)22.2 km/h33.3 km/hClear
11:53 PM6.7 °C-2.2 °C53 %1020.7 hPa16.1 kmEast (100°)24.1 km/h35.2 km/hMostly Cloudy
Hourly data recorded from KTUS, located 0 kilometers away from Sahuarita, Arizona







STORIES FROM OUR PARTNERS